Home > Weather > Barnaul > Past weeks

Flag for Russia Past Weather in Barnaul, Russia — Yesterday and Last 2 Weeks

Now
64 °F

Passing clouds.


Feels Like: 64 °F
Forecast: 66 / 83 °F
Wind: 8 mph from Southwest

Location: Barnaul Airport

Current Time: Jun 25, 2016 at 8:46:59 AM

Latest Report: Jun 25, 2016 at 8:00 AM


Visibility: N/A

Pressure: 29.86 "Hg

Humidity: 78%

Dew Point: 57 °F

Location of BarnaulLocation

Past Weather in Barnaul — Graph

°F

Barnaul Temperature Yesterday

Maximum temperature yesterday: 79 °F (at 4:00 PM)
Minimum temperature yesterday: 59 °F (at 5:30 AM)
Average temperature yesterday: 68 °F

High & Low Weather Summary for the Past Weeks

 TemperatureHumidityPressure
High86 °F (Jun 13, 1:00 PM)100% (Jun 20, 6:00 AM)29.98 "Hg (Jun 20, 6:00 AM)
Low55 °F (Jun 20, 6:00 AM)23% (Jun 13, 6:00 PM)29.62 "Hg (Jun 19, 6:00 AM)
Average69 °F59%29.79 "Hg
* Reported Jun 10 7:00 AM — Jun 25 7:30 AM, Barnaul, Weather by CustomWeather, © 2016

Note: Actual official high and low records may vary slightly from our data, if they occured in-between our weather recording intervals... More about our weather records

Advertising

Barnaul Weather History for the Previous 24 Hours

Scroll right to see more
 ConditionsComfort  
Time TempWeatherWind HumidityBarometerVisibility
7:30 AM
Sat, Jun 25
61 °FPassing clouds.8 mph83%29.86 "HgN/A
7:00 AM61 °FPassing clouds.8 mph83%29.86 "HgN/A
6:30 AM64 °FPassing clouds.6 mph68%29.86 "HgN/A
6:00 AM63 °FScattered clouds.3 mph73%29.83 "HgN/A
5:30 AM63 °FScattered clouds.3 mph73%29.83 "HgN/A
5:00 AM61 °FSunny.6 mph77%29.83 "Hg10 mi
4:30 AM61 °FSunny.6 mph77%29.83 "Hg10 mi
4:00 AM63 °FSunny.6 mph73%29.83 "Hg10 mi
3:30 AM61 °FClear.6 mph77%29.83 "Hg10 mi
3:00 AM63 °FClear.8 mph73%29.83 "Hg10 mi
2:30 AM63 °FClear.10 mph73%29.83 "Hg10 mi
2:00 AM63 °FPassing clouds.6 mph73%29.83 "HgN/A
1:30 AM63 °FPassing clouds.8 mph73%29.83 "HgN/A
1:00 AM64 °FPassing clouds.8 mph68%29.83 "HgN/A
12:30 AM64 °FPassing clouds.8 mph68%29.83 "HgN/A
12:00 AM64 °FPassing clouds.8 mph73%29.83 "HgN/A
11:30 PM
Fri, Jun 24
66 °FPassing clouds.6 mph68%29.83 "HgN/A
11:00 PM66 °FPassing clouds.3 mph68%29.83 "HgN/A
10:30 PM68 °FPassing clouds.6 mph64%29.83 "HgN/A
10:00 PM68 °FPassing clouds.3 mph73%29.80 "HgN/A
9:30 PM68 °FPassing clouds.6 mph78%29.80 "HgN/A
9:00 PM70 °FPassing clouds.6 mph69%29.80 "HgN/A
8:30 PM72 °FScattered clouds.6 mph65%29.80 "HgN/A
8:00 PM72 °FScattered clouds.6 mph61%29.80 "HgN/A
7:30 PM73 °FScattered clouds.3 mph61%29.80 "HgN/A
7:00 PM73 °FScattered clouds.3 mph61%29.80 "HgN/A
6:30 PM73 °FScattered clouds.3 mph57%29.80 "HgN/A
6:00 PM73 °FScattered clouds.3 mph57%29.80 "HgN/A
5:30 PM73 °FScattered clouds.3 mph50%29.80 "HgN/A
5:00 PM73 °FSprinkles. Partly sunny.6 mph53%29.80 "HgN/A
4:30 PM73 °FThunderstorms. Partly sunny.6 mph57%29.80 "HgN/A
4:00 PM79 °FThunderstorms. Scattered clouds.3 mph45%29.77 "HgN/A
3:30 PM77 °FPassing clouds.1 mph44%29.77 "HgN/A
3:00 PM77 °FPassing clouds.3 mph44%29.80 "HgN/A
2:30 PM77 °FScattered clouds.3 mph44%29.80 "HgN/A
2:00 PM72 °FScattered clouds.3 mph53%29.80 "HgN/A
1:30 PM72 °FThunderstorms. Partly sunny.8 mph50%29.80 "HgN/A
1:00 PM72 °FThunderstorms. Partly sunny.6 mph47%29.80 "HgN/A
12:30 PM73 °FThunderstorms. Partly sunny.3 mph47%29.80 "HgN/A
12:00 PM77 °FScattered clouds.3 mph47%29.80 "HgN/A
11:30 AM75 °FScattered clouds.1 mph54%29.80 "HgN/A
11:00 AM73 °FPassing clouds.3 mph57%29.80 "HgN/A
10:30 AM72 °FPassing clouds.3 mph65%29.80 "HgN/A
10:00 AM72 °FPassing clouds.3 mph61%29.80 "HgN/A
9:30 AM68 °FPassing clouds.3 mph73%29.83 "HgN/A
9:00 AM66 °FPassing clouds.3 mph78%29.83 "HgN/A
8:30 AM64 °FSunny.3 mph83%29.83 "Hg10 mi
8:00 AM64 °FSunny.3 mph83%29.83 "Hg10 mi
Weather by CustomWeather, © 2016

See weather overviewHow to use our weather pages